Location: Maiden
(35.5760°N, 81.2120°W)
Time: 03:20:47
(UTC-04:00)

OAO 1 - Pass Details

Date: 02 August 2020
Orbit: 774 x 783 km, 35.0° (Epoch: 11 August)

Event Time Altitude Azimuth Distance (km) Brightness Sun altitude
Rises 22:02:15 0° 274° (W) 3,239 8.7 -17.6°
Reaches altitude 10° 22:04:43 10° 274° (W) 2,312 7.8 -17.9°
Maximum altitude 22:10:11 81° 188° (S) 784 4.4 -18.8°
Enters shadow 22:12:39 34° 104° (ESE) 1,257 5.1 -19.2°
